Time,TemperatureF,DewpointF,PressureIn,WindDirection,WindDirectionDegrees,WindSpeedMPH,WindSpeedGustMPH,Humidity,HourlyPrecipIn,Conditions,Clouds,dailyrainin,SoftwareType,DateUTC
2013-02-28 00:00:00,27.7,18.1,29.97,North,0,0.0,0.0,67,0.00,RA,,0.00,WeatherDisplay:10.37,2013-02-28 06:00:00,
2013-02-28 00:10:00,27.5,18.0,29.97,North,0,0.0,0.0,67,0.00,CLR,,0.00,WeatherDisplay:10.37,2013-02-28 06:10:00,
2013-02-28 00:20:00,27.3,17.8,29.97,North,0,0.0,0.0,67,0.00,CLR,,0.00,WeatherDisplay:10.37,2013-02-28 06:20:00,
2013-02-28 00:30:00,27.3,17.8,29.97,North,0,0.0,0.0,67,0.00,CLR,,0.00,WeatherDisplay:10.37,2013-02-28 06:30:00,
2013-02-28 00:40:00,27.3,18.1,29.97,North,0,0.0,0.0,68,0.00,CLR,,0.00,WeatherDisplay:10.37,2013-02-28 06:40:00,
2013-02-28 00:50:00,27.7,18.1,29.97,North,0,0.0,0.0,67,0.00,CLR,,0.00,WeatherDisplay:10.37,2013-02-28 06:50:00,
2013-02-28 01:00:00,27.9,17.6,29.97,North,0,0.0,0.0,65,0.00,CLR,,0.00,WeatherDisplay:10.37,2013-02-28 07:00:00,
2013-02-28 01:10:00,28.4,18.1,29.97,North,0,0.0,0.0,65,0.00,CLR,,0.00,WeatherDisplay:10.37,2013-02-28 07:10:00,
2013-02-28 01:20:00,28.6,17.9,29.97,North,0,0.0,0.0,64,0.00,CLR,,0.00,WeatherDisplay:10.37,2013-02-28 07:20:00,
2013-02-28 01:30:00,28.6,17.6,29.97,North,0,0.0,0.0,63,0.00,CLR,,0.00,WeatherDisplay:10.37,2013-02-28 07:30:00,
2013-02-28 01:40:00,28.8,17.7,29.97,North,0,0.0,0.0,63,0.00,CLR,,0.00,WeatherDisplay:10.37,2013-02-28 07:40:00,
2013-02-28 01:50:00,28.9,17.9,29.97,North,0,0.0,0.0,63,0.00,CLR,,0.00,WeatherDisplay:10.37,2013-02-28 07:50:00,
2013-02-28 02:00:00,29.1,17.7,29.97,North,0,0.0,0.0,62,0.00,CLR,,0.00,WeatherDisplay:10.37,2013-02-28 08:00:00,
2013-02-28 02:10:00,29.3,17.9,29.97,North,0,0.0,0.0,62,0.00,CLR,,0.00,WeatherDisplay:10.37,2013-02-28 08:10:00,
2013-02-28 02:20:00,29.3,17.9,29.97,North,0,0.0,0.0,62,0.00,CLR,,0.00,WeatherDisplay:10.37,2013-02-28 08:20:00,
2013-02-28 02:30:00,29.5,17.7,29.97,North,0,0.0,0.0,61,0.00,CLR,,0.00,WeatherDisplay:10.37,2013-02-28 08:30:00,
2013-02-28 02:40:00,29.7,17.5,29.97,North,0,0.0,0.0,60,0.00,CLR,,0.00,WeatherDisplay:10.37,2013-02-28 08:40:00,
2013-02-28 02:50:00,30.0,17.4,29.97,North,0,0.0,0.0,59,0.00,CLR,,0.00,WeatherDisplay:10.37,2013-02-28 08:50:00,
2013-02-28 03:00:00,30.2,17.2,29.97,North,0,0.0,0.0,58,0.00,CLR,,0.00,WeatherDisplay:10.37,2013-02-28 09:00:00,
2013-02-28 03:10:00,30.4,16.9,29.97,North,0,0.0,0.0,57,0.00,CLR,,0.00,WeatherDisplay:10.37,2013-02-28 09:10:00,
2013-02-28 03:20:00,30.4,16.5,29.99,North,0,0.0,0.0,56,0.00,CLR,,0.00,WeatherDisplay:10.37,2013-02-28 09:20:00,
2013-02-28 03:30:00,30.6,16.7,30.00,North,0,0.0,0.0,56,0.00,CLR,,0.00,WeatherDisplay:10.37,2013-02-28 09:30:00,
2013-02-28 03:40:00,30.6,16.3,30.00,North,0,0.0,0.0,55,0.00,CLR,,0.00,WeatherDisplay:10.37,2013-02-28 09:40:00,
2013-02-28 03:50:00,30.7,16.0,30.00,North,0,0.0,0.0,54,0.00,CLR,,0.00,WeatherDisplay:10.37,2013-02-28 09:50:00,
2013-02-28 04:00:00,30.7,16.0,30.00,North,0,0.0,0.0,54,0.00,CLR,,0.00,WeatherDisplay:10.37,2013-02-28 10:00:00,
2013-02-28 04:10:00,30.7,16.0,30.00,North,0,0.0,0.0,54,0.00,CLR,,0.00,WeatherDisplay:10.37,2013-02-28 10:10:00,
2013-02-28 04:20:00,30.7,16.0,30.00,North,0,0.0,0.0,54,0.00,CLR,,0.00,WeatherDisplay:10.37,2013-02-28 10:20:00,
2013-02-28 04:30:00,30.7,16.0,30.00,North,0,0.0,0.0,54,0.00,CLR,,0.00,WeatherDisplay:10.37,2013-02-28 10:30:00,
2013-02-28 04:40:00,30.6,15.9,30.00,North,0,0.0,0.0,54,0.00,CLR,,0.00,WeatherDisplay:10.37,2013-02-28 10:40:00,
2013-02-28 04:50:00,30.6,15.9,30.00,North,0,0.0,0.0,54,0.00,CLR,,0.00,WeatherDisplay:10.37,2013-02-28 10:50:00,
2013-02-28 05:00:00,30.6,16.3,30.00,North,0,0.0,0.0,55,0.00,CLR,,0.00,WeatherDisplay:10.37,2013-02-28 11:00:00,
2013-02-28 05:10:00,30.5,16.3,30.00,North,0,0.0,0.0,55,0.00,CLR,,0.00,WeatherDisplay:10.37,2013-02-28 11:10:00,
2013-02-28 05:20:00,30.4,16.1,30.00,North,0,0.0,0.0,55,0.00,CLR,,0.00,WeatherDisplay:10.37,2013-02-28 11:20:00,
2013-02-28 05:30:00,30.2,16.4,30.00,North,0,0.0,0.0,56,0.00,CLR,,0.00,WeatherDisplay:10.37,2013-02-28 11:30:00,
2013-02-28 05:40:00,30.2,16.8,30.03,North,0,0.0,0.0,57,0.00,CLR,,0.00,WeatherDisplay:10.37,2013-02-28 11:40:00,
2013-02-28 05:50:00,30.2,16.8,30.03,North,0,0.0,0.0,57,0.00,CLR,,0.00,WeatherDisplay:10.37,2013-02-28 11:50:00,
2013-02-28 06:00:00,30.2,16.4,30.03,North,0,0.0,0.0,56,0.00,CLR,,0.00,WeatherDisplay:10.37,2013-02-28 12:00:00,
2013-02-28 06:10:00,30.2,16.4,30.03,North,0,0.0,0.0,56,0.00,CLR,,0.00,WeatherDisplay:10.37,2013-02-28 12:10:00,
2013-02-28 06:20:00,30.0,16.2,30.03,North,0,0.0,0.0,56,0.00,CLR,,0.00,WeatherDisplay:10.37,2013-02-28 12:20:00,
2013-02-28 06:30:00,30.0,16.6,30.03,North,0,0.0,0.0,57,0.00,CLR,,0.00,WeatherDisplay:10.37,2013-02-28 12:30:00,
2013-02-28 06:40:00,29.8,16.4,30.03,North,0,0.0,0.0,57,0.00,CLR,,0.00,WeatherDisplay:10.37,2013-02-28 12:40:00,
2013-02-28 06:50:00,29.7,16.7,30.03,North,0,0.0,0.0,58,0.00,CLR,,0.00,WeatherDisplay:10.37,2013-02-28 12:50:00,
2013-02-28 07:00:00,29.7,16.7,30.03,North,0,0.0,0.0,58,0.00,CLR,,0.00,WeatherDisplay:10.37,2013-02-28 13:00:00,
2013-02-28 07:10:00,29.5,16.5,30.03,North,0,0.0,0.0,58,0.00,CLR,,0.00,WeatherDisplay:10.37,2013-02-28 13:10:00,
2013-02-28 07:20:00,29.5,16.5,30.03,North,0,0.0,0.0,58,0.00,CLR,,0.00,WeatherDisplay:10.37,2013-02-28 13:20:00,
2013-02-28 07:30:00,29.5,15.7,30.03,North,0,0.0,0.0,56,0.00,CLR,,0.00,WeatherDisplay:10.37,2013-02-28 13:30:00,
2013-02-28 07:40:00,29.5,15.7,30.06,North,0,0.0,0.0,56,0.00,CLR,,0.00,WeatherDisplay:10.37,2013-02-28 13:40:00,
2013-02-28 07:50:00,29.5,15.7,30.06,North,0,0.0,0.0,56,0.00,CLR,,0.00,WeatherDisplay:10.37,2013-02-28 13:50:00,
2013-02-28 08:00:00,29.5,16.1,30.06,North,0,0.0,0.0,57,0.00,CLR,,0.00,WeatherDisplay:10.37,2013-02-28 14:00:00,
2013-02-28 08:10:00,29.5,15.7,30.06,North,0,0.0,0.0,56,0.00,CLR,,0.00,WeatherDisplay:10.37,2013-02-28 14:10:00,
2013-02-28 08:20:00,29.5,16.1,30.06,North,0,0.0,0.0,57,0.00,CLR,,0.00,WeatherDisplay:10.37,2013-02-28 14:20:00,
2013-02-28 08:30:00,29.5,16.1,30.06,North,0,0.0,0.0,57,0.00,CLR,,0.00,WeatherDisplay:10.37,2013-02-28 14:30:00,
2013-02-28 08:40:00,29.3,15.9,30.06,North,0,0.0,0.0,57,0.00,CLR,,0.00,WeatherDisplay:10.37,2013-02-28 14:40:00,
2013-02-28 08:50:00,29.3,15.9,30.06,North,0,0.0,0.0,57,0.00,CLR,,0.00,WeatherDisplay:10.37,2013-02-28 14:50:00,
2013-02-28 09:00:00,29.1,16.2,30.06,North,0,0.0,0.0,58,0.00,CLR,,0.00,WeatherDisplay:10.37,2013-02-28 15:00:00,
2013-02-28 09:10:00,29.1,16.6,30.06,North,0,0.0,0.0,59,0.00,CLR,,0.00,WeatherDisplay:10.37,2013-02-28 15:10:00,
2013-02-28 09:20:00,28.9,16.8,30.06,North,0,0.0,0.0,60,0.00,CLR,,0.00,WeatherDisplay:10.37,2013-02-28 15:20:00,
2013-02-28 09:30:00,28.9,17.2,30.06,North,0,0.0,0.0,61,0.00,CLR,,0.00,WeatherDisplay:10.37,2013-02-28 15:30:00,
2013-02-28 09:40:00,28.8,16.6,30.06,North,0,0.0,0.0,60,0.00,CLR,,0.00,WeatherDisplay:10.37,2013-02-28 15:40:00,
2013-02-28 09:50:00,28.6,16.1,30.08,North,0,0.0,0.0,59,0.00,CLR,,0.00,WeatherDisplay:10.37,2013-02-28 15:50:00,
2013-02-28 10:00:00,28.6,15.7,30.09,North,0,0.0,0.0,58,0.00,CLR,,0.00,WeatherDisplay:10.37,2013-02-28 16:00:00,
2013-02-28 10:10:00,28.8,15.8,30.09,North,0,0.0,0.0,58,0.00,CLR,,0.00,WeatherDisplay:10.37,2013-02-28 16:10:00,
2013-02-28 10:20:00,28.8,13.8,30.09,North,0,0.0,0.0,53,0.00,CLR,,0.00,WeatherDisplay:10.37,2013-02-28 16:20:00,
2013-02-28 10:30:00,28.9,13.9,30.09,North,0,0.0,0.0,53,0.00,CLR,,0.00,WeatherDisplay:10.37,2013-02-28 16:30:00,
2013-02-28 10:40:00,29.3,14.3,30.09,North,0,0.0,0.0,53,0.00,CLR,,0.00,WeatherDisplay:10.37,2013-02-28 16:40:00,
2013-02-28 10:50:00,29.5,14.0,30.09,North,0,0.0,0.0,52,0.00,CLR,,0.00,WeatherDisplay:10.37,2013-02-28 16:50:00,
2013-02-28 11:00:00,29.5,14.0,30.09,North,0,0.0,0.0,52,0.00,CLR,,0.00,WeatherDisplay:10.37,2013-02-28 17:00:00,
2013-02-28 11:10:00,29.5,14.4,30.09,North,0,0.0,0.0,53,0.00,CLR,,0.00,WeatherDisplay:10.37,2013-02-28 17:10:00,
2013-02-28 11:20:00,29.7,14.6,30.09,North,0,0.0,0.0,53,0.00,CLR,,0.00,WeatherDisplay:10.37,2013-02-28 17:20:00,
2013-02-28 11:30:00,29.7,14.6,30.09,North,0,0.0,0.0,53,0.00,CLR,,0.00,WeatherDisplay:10.37,2013-02-28 17:30:00,
2013-02-28 11:40:00,29.7,15.0,30.09,North,0,0.0,0.0,54,0.00,CLR,,0.00,WeatherDisplay:10.37,2013-02-28 17:40:00,
2013-02-28 11:50:00,29.7,15.0,30.09,North,0,0.0,0.0,54,0.00,CLR,,0.00,WeatherDisplay:10.37,2013-02-28 17:50:00,
2013-02-28 12:00:00,29.7,15.0,30.09,North,0,0.0,0.0,54,0.00,CLR,,0.00,WeatherDisplay:10.37,2013-02-28 18:00:00,
2013-02-28 12:10:00,29.5,14.9,30.09,North,0,0.0,0.0,54,0.00,CLR,,0.00,WeatherDisplay:10.37,2013-02-28 18:10:00,
2013-02-28 12:20:00,29.5,15.3,30.09,North,0,0.0,0.0,55,0.00,CLR,,0.00,WeatherDisplay:10.37,2013-02-28 18:20:00,
2013-02-28 12:30:00,29.7,15.5,30.09,North,0,0.0,0.0,55,0.00,CLR,,0.00,WeatherDisplay:10.37,2013-02-28 18:30:00,
2013-02-28 12:40:00,29.8,15.2,30.09,North,0,0.0,0.0,54,0.00,CLR,,0.00,WeatherDisplay:10.37,2013-02-28 18:40:00,
2013-02-28 12:50:00,29.8,15.2,30.09,North,0,0.0,0.0,54,0.00,CLR,,0.00,WeatherDisplay:10.37,2013-02-28 18:50:00,
2013-02-28 13:00:00,29.8,15.2,30.09,North,0,0.0,0.0,54,0.00,CLR,,0.00,WeatherDisplay:10.37,2013-02-28 19:00:00,
2013-02-28 13:10:00,30.0,14.9,30.09,North,0,0.0,0.0,53,0.00,CLR,,0.00,WeatherDisplay:10.37,2013-02-28 19:10:00,
2013-02-28 13:20:00,29.8,15.2,30.09,North,0,0.0,0.0,54,0.00,CLR,,0.00,WeatherDisplay:10.37,2013-02-28 19:20:00,
2013-02-28 13:30:00,29.8,14.8,30.09,North,0,0.0,0.0,53,0.00,CLR,,0.00,WeatherDisplay:10.37,2013-02-28 19:30:00,
2013-02-28 13:40:00,29.8,15.2,30.09,North,0,0.0,0.0,54,0.00,CLR,,0.00,WeatherDisplay:10.37,2013-02-28 19:40:00,
2013-02-28 13:50:00,29.7,15.0,30.09,North,0,0.0,0.0,54,0.00,CLR,,0.00,WeatherDisplay:10.37,2013-02-28 19:50:00,
2013-02-28 14:00:00,29.7,15.5,30.09,North,0,0.0,0.0,55,0.00,CLR,,0.00,WeatherDisplay:10.37,2013-02-28 20:00:00,
2013-02-28 14:10:00,29.7,15.5,30.09,North,0,0.0,0.0,55,0.00,CLR,,0.00,WeatherDisplay:10.37,2013-02-28 20:10:00,
2013-02-28 14:20:00,29.4,15.2,30.09,North,0,0.0,0.0,55,0.00,CLR,,0.00,WeatherDisplay:10.37,2013-02-28 20:20:00,
2013-02-28 14:30:00,29.3,15.1,30.09,North,0,0.0,0.0,55,0.00,CLR,,0.00,WeatherDisplay:10.37,2013-02-28 20:30:00,
2013-02-28 14:40:00,29.5,15.3,30.09,North,0,0.0,0.0,55,0.00,CLR,,0.00,WeatherDisplay:10.37,2013-02-28 20:40:00,
2013-02-28 14:50:00,29.5,15.3,30.09,North,0,0.0,0.0,55,0.00,CLR,,0.00,WeatherDisplay:10.37,2013-02-28 20:50:00,
2013-02-28 15:00:00,29.3,15.1,30.09,North,0,0.0,0.0,55,0.00,CLR,,0.00,WeatherDisplay:10.37,2013-02-28 21:00:00,
2013-02-28 15:10:00,29.5,15.3,30.09,North,0,0.0,0.0,55,0.00,CLR,,0.00,WeatherDisplay:10.37,2013-02-28 21:10:00,
2013-02-28 15:20:00,29.3,14.7,30.09,North,0,0.0,0.0,54,0.00,CLR,,0.00,WeatherDisplay:10.37,2013-02-28 21:20:00,
2013-02-28 15:30:00,29.3,14.7,30.09,North,0,0.0,0.0,54,0.00,CLR,,0.00,WeatherDisplay:10.37,2013-02-28 21:30:00,
2013-02-28 15:40:00,29.1,14.5,30.09,North,0,0.0,0.0,54,0.00,CLR,,0.00,WeatherDisplay:10.37,2013-02-28 21:40:00,
2013-02-28 15:50:00,28.9,14.4,30.09,North,0,0.0,0.0,54,0.00,CLR,,0.00,WeatherDisplay:10.37,2013-02-28 21:50:00,
2013-02-28 16:00:00,29.1,14.9,30.09,North,0,0.0,0.0,55,0.00,CLR,,0.00,WeatherDisplay:10.37,2013-02-28 22:00:00,
2013-02-28 16:10:00,28.9,14.4,30.09,North,0,0.0,0.0,54,0.00,CLR,,0.00,WeatherDisplay:10.37,2013-02-28 22:10:00,
2013-02-28 16:20:00,28.8,14.2,30.09,North,0,0.0,0.0,54,0.00,CLR,,0.00,WeatherDisplay:10.37,2013-02-28 22:20:00,
2013-02-28 16:30:00,28.6,13.6,30.09,North,0,0.0,0.0,53,0.00,CLR,,0.00,WeatherDisplay:10.37,2013-02-28 22:30:00,
2013-02-28 16:40:00,28.6,13.2,30.09,North,0,0.0,0.0,52,0.00,CLR,,0.00,WeatherDisplay:10.37,2013-02-28 22:40:00,
2013-02-28 16:50:00,28.4,13.0,30.09,North,0,0.0,0.0,52,0.00,CLR,,0.00,WeatherDisplay:10.37,2013-02-28 22:50:00,
2013-02-28 17:00:00,28.4,13.0,30.09,North,0,0.0,0.0,52,0.00,CLR,,0.00,WeatherDisplay:10.37,2013-02-28 23:00:00,
2013-02-28 17:10:00,28.2,12.8,30.12,North,0,0.0,0.0,52,0.00,CLR,,0.00,WeatherDisplay:10.37,2013-02-28 23:10:00,
2013-02-28 17:20:00,28.2,12.4,30.12,North,0,0.0,0.0,51,0.00,CLR,,0.00,WeatherDisplay:10.37,2013-02-28 23:20:00,
2013-02-28 17:30:00,28.2,12.4,30.12,North,0,0.0,0.0,51,0.00,CLR,,0.00,WeatherDisplay:10.37,2013-02-28 23:30:00,
2013-02-28 17:40:00,28.1,12.3,30.12,North,0,0.0,0.0,51,0.00,CLR,,0.00,WeatherDisplay:10.37,2013-02-28 23:40:00,
2013-02-28 17:50:00,28.0,12.2,30.12,North,0,0.0,0.0,51,0.00,CLR,,0.00,WeatherDisplay:10.37,2013-02-28 23:50:00,
2013-02-28 18:00:00,28.0,12.2,30.12,North,0,0.0,0.0,51,0.00,CLR,,0.00,WeatherDisplay:10.37,2013-03-01 00:00:00,
2013-02-28 18:10:00,28.0,12.7,30.09,North,0,0.0,0.0,52,0.00,CLR,,0.00,WeatherDisplay:10.37,2013-03-01 00:10:00,
2013-02-28 18:20:00,28.0,12.7,30.09,North,0,0.0,0.0,52,0.00,CLR,,0.00,WeatherDisplay:10.37,2013-03-01 00:20:00,
2013-02-28 18:30:00,27.9,12.5,30.12,North,0,0.0,0.0,52,0.00,CLR,,0.00,WeatherDisplay:10.37,2013-03-01 00:30:00,
2013-02-28 18:40:00,27.9,12.5,30.12,North,0,0.0,0.0,52,0.00,CLR,,0.00,WeatherDisplay:10.37,2013-03-01 00:40:00,
2013-02-28 18:50:00,27.9,12.9,30.12,North,0,0.0,0.0,53,0.00,CLR,,0.00,WeatherDisplay:10.37,2013-03-01 00:50:00,
2013-02-28 19:00:00,27.9,12.9,30.12,North,0,0.0,0.0,53,0.00,CLR,,0.00,WeatherDisplay:10.37,2013-03-01 01:00:00,
2013-02-28 19:10:00,27.9,12.9,30.12,North,0,0.0,0.0,53,0.00,CLR,,0.00,WeatherDisplay:10.37,2013-03-01 01:10:00,
2013-02-28 19:20:00,27.9,12.9,30.12,North,0,0.0,0.0,53,0.00,CLR,,0.00,WeatherDisplay:10.37,2013-03-01 01:20:00,
2013-02-28 19:30:00,27.9,12.9,30.12,North,0,0.0,0.0,53,0.00,CLR,,0.00,WeatherDisplay:10.37,2013-03-01 01:30:00,
2013-02-28 19:40:00,27.9,13.3,30.12,North,0,0.0,0.0,54,0.00,CLR,,0.00,WeatherDisplay:10.37,2013-03-01 01:40:00,
2013-02-28 19:50:00,27.7,13.2,30.12,North,0,0.0,0.0,54,0.00,CLR,,0.00,WeatherDisplay:10.37,2013-03-01 01:50:00,
2013-02-28 20:00:00,27.7,13.2,30.12,North,0,0.0,0.0,54,0.00,CLR,,0.00,WeatherDisplay:10.37,2013-03-01 02:00:00,
2013-02-28 20:10:00,27.7,13.2,30.12,North,0,0.0,0.0,54,0.00,CLR,,0.00,WeatherDisplay:10.37,2013-03-01 02:10:00,
2013-02-28 20:20:00,27.5,12.6,30.12,North,0,0.0,0.0,53,0.00,CLR,,0.00,WeatherDisplay:10.37,2013-03-01 02:20:00,
2013-02-28 20:30:00,27.5,12.6,30.12,North,0,0.0,0.0,53,0.00,CLR,,0.00,WeatherDisplay:10.37,2013-03-01 02:30:00,
2013-02-28 20:40:00,27.5,12.6,30.12,North,0,0.0,0.0,53,0.00,CLR,,0.00,WeatherDisplay:10.37,2013-03-01 02:40:00,
2013-02-28 20:50:00,27.3,12.4,30.12,North,0,0.0,0.0,53,0.00,CLR,,0.00,WeatherDisplay:10.37,2013-03-01 02:50:00,
2013-02-28 21:00:00,27.3,12.4,30.12,North,0,0.0,0.0,53,0.00,CLR,,0.00,WeatherDisplay:10.37,2013-03-01 03:00:00,
2013-02-28 21:10:00,27.1,11.8,30.12,North,0,0.0,0.0,52,0.00,CLR,,0.00,WeatherDisplay:10.37,2013-03-01 03:10:00,
2013-02-28 21:20:00,26.9,11.6,30.12,North,0,0.0,0.0,52,0.00,CLR,,0.00,WeatherDisplay:10.37,2013-03-01 03:20:00,
2013-02-28 21:30:00,26.4,11.6,30.12,North,0,0.0,0.0,53,0.00,CLR,,0.00,WeatherDisplay:10.37,2013-03-01 03:30:00,
2013-02-28 21:40:00,26.2,11.4,30.12,North,0,0.0,0.0,53,0.00,CLR,,0.00,WeatherDisplay:10.37,2013-03-01 03:40:00,
2013-02-28 21:50:00,26.1,11.7,30.13,North,0,0.0,0.0,54,0.00,CLR,,0.00,WeatherDisplay:10.37,2013-03-01 03:50:00,
2013-02-28 22:00:00,25.7,10.9,30.15,North,0,0.0,0.0,53,0.00,CLR,,0.00,WeatherDisplay:10.37,2013-03-01 04:00:00,
2013-02-28 22:10:00,25.3,10.6,30.15,North,0,0.0,0.0,53,0.00,CLR,,0.00,WeatherDisplay:10.37,2013-03-01 04:10:00,
2013-02-28 22:20:00,24.8,10.1,30.15,North,0,0.0,0.0,53,0.00,CLR,,0.00,WeatherDisplay:10.37,2013-03-01 04:20:00,
2013-02-28 22:30:00,24.6,10.3,30.15,North,0,0.0,0.0,54,0.00,CLR,,0.00,WeatherDisplay:10.37,2013-03-01 04:30:00,
2013-02-28 22:40:00,24.4,10.2,30.15,North,0,0.0,0.0,54,0.00,CLR,,0.00,WeatherDisplay:10.37,2013-03-01 04:40:00,
2013-02-28 22:50:00,24.4,10.2,30.15,North,0,0.0,0.0,54,0.00,CLR,,0.00,WeatherDisplay:10.37,2013-03-01 04:50:00,
2013-02-28 23:10:00,24.3,10.4,30.15,North,0,0.0,0.0,55,0.00,CLR,,0.00,WeatherDisplay:10.37,2013-03-01 05:10:00,
2013-02-28 23:20:00,24.3,10.4,30.15,North,0,0.0,0.0,55,0.00,CLR,,0.00,WeatherDisplay:10.37,2013-03-01 05:20:00,
2013-02-28 23:30:00,24.1,9.8,30.15,North,0,0.0,0.0,54,0.00,CLR,,0.00,WeatherDisplay:10.37,2013-03-01 05:30:00,
2013-02-28 23:40:00,23.9,10.1,30.15,North,0,0.0,0.0,55,0.00,CLR,,0.00,WeatherDisplay:10.37,2013-03-01 05:40:00,
2013-02-28 23:50:00,23.9,10.1,30.15,North,0,0.0,0.0,55,0.00,CLR,,0.00,WeatherDisplay:10.37,2013-03-01 05:50:00,